CAPE
nan nan nan nan nan nan nan nan nan nan nan nan nan nan nan nan nan nan nan nan nan nan nan nan nan nan nan 0 0 0 1 4 15 15 8 4 2 2 1 0 0 0 nan nan nan nan nan 0 0 1 nan 0 2 2 5 11 11 19 29 32 32 37 39 39 39 35 22 12 10 10 10 9 7 7 6 5 4 4 3 1 1 nan nan nan nan 0
nan nan nan nan nan nan nan nan nan nan nan nan nan nan nan nan nan nan nan nan nan nan nan nan nan nan nan nan nan nan 0 1 7 7 12 7 4 4 2 1 1 0 nan nan nan nan nan nan nan nan nan nan nan nan 0 3 3 6 12 24 24 38 43 43 43 36 23 12 7 7 6 6 4 4 4 4 3 3 2 1 1 nan nan 0 0 0
nan nan nan nan nan nan nan nan nan nan nan nan nan nan nan nan nan nan nan nan nan nan nan nan nan nan nan nan 0 0 0 1 1 1 8 9 4 4 0 0 0 0 0 0 0 nan nan nan nan nan nan nan nan nan nan nan nan 0 2 10 10 26 27 25 25 23 13 6 4 4 4 4 3 3 4 4 4 4 2 0 0 nan nan nan nan 0
nan nan nan nan nan nan nan nan nan nan nan nan nan nan nan nan 0 0 nan nan nan nan nan nan nan nan nan nan 0 0 0 0 3 3 4 6 3 3 nan nan nan nan nan nan nan nan nan 0 0 nan nan nan nan nan nan 0 0 nan nan 0 0 5 3 2 2 3 2 2 1 1 1 2 3 3 4 5 3 3 1 nan nan nan nan nan nan 0
nan nan nan nan nan nan nan nan 0 0 nan nan nan nan nan nan nan nan nan nan nan nan nan nan nan nan nan nan 0 0 0 0 1 1 2 3 4 4 1 0 0 nan nan nan nan nan nan nan nan nan nan nan nan nan nan nan nan nan nan nan nan nan nan nan nan 0 0 0 0 0 1 2 4 4 4 4 2 2 0 nan nan nan nan nan nan 0
nan nan nan nan nan nan nan nan 0 0 nan nan nan nan nan nan nan nan nan nan nan nan nan nan nan nan nan nan 1 1 0 0 0 0 1 3 6 6 4 1 1 0 nan nan nan nan nan nan nan nan nan nan nan nan 0 nan nan nan nan nan nan nan nan nan nan nan 0 0 0 0 0 1 1 1 2 1 0 0 nan nan nan nan nan nan nan 0
nan nan nan nan nan nan nan nan 0 0 nan nan nan nan nan nan nan nan nan 0 0 0 nan nan nan nan nan nan 0 0 1 0 0 0 nan 1 3 3 7 2 2 0 nan 0 0 nan nan nan nan nan nan nan nan nan nan nan nan nan nan nan nan nan nan nan nan nan nan 0 0 0 0 nan nan nan nan nan nan nan nan nan nan nan nan nan nan nan
nan nan nan nan nan nan nan nan nan nan nan nan nan nan nan nan nan nan nan nan nan nan nan nan nan nan nan nan nan nan nan 0 0 0 nan 0 6 6 4 2 2 1 nan nan nan nan 0 0 0 nan nan nan nan nan nan nan nan nan nan nan nan nan nan nan nan nan nan nan nan nan nan nan nan nan nan nan nan nan nan nan nan nan nan nan nan nan
nan nan nan nan nan nan nan nan nan nan nan nan nan nan nan nan nan nan nan nan nan nan nan nan nan nan nan nan nan nan 0 0 0 0 nan nan nan nan 1 3 3 2 0 nan nan 0 1 1 1 0 nan nan nan nan nan nan nan nan nan nan nan nan nan nan nan nan nan nan nan nan nan nan nan nan nan nan nan nan nan nan nan nan nan nan nan nan
nan nan nan nan nan nan nan nan nan nan nan nan nan nan nan nan nan nan nan nan nan nan nan nan nan nan nan nan nan nan nan nan 0 0 1 nan 0 0 nan nan nan 0 1 2 2 1 2 2 2 1 nan nan nan nan nan nan nan nan nan 0 0 nan nan nan nan nan nan nan nan nan nan nan nan nan nan nan nan nan nan nan nan nan nan nan nan nan
nan nan nan nan nan nan nan nan nan nan nan nan nan nan nan nan nan nan nan nan nan nan nan nan nan nan nan nan nan nan nan nan nan nan 1 nan nan nan nan nan nan nan 1 2 2 3 2 2 2 1 nan nan nan nan nan nan nan nan nan nan nan 0 0 nan nan nan nan nan nan nan nan nan nan nan nan nan nan nan nan nan nan nan nan nan nan nan
nan nan nan nan nan nan nan nan nan nan nan nan nan nan nan nan nan nan nan nan nan nan nan nan nan nan nan nan nan nan nan nan nan nan nan 0 0 0 nan nan nan nan nan 4 4 3 4 2 2 nan nan nan nan nan nan nan nan nan nan nan nan nan nan nan nan nan nan nan nan nan nan nan nan nan nan nan nan nan nan nan nan nan nan nan nan nan
nan nan nan nan nan nan nan nan nan nan nan nan nan nan nan nan nan nan nan nan nan nan nan nan nan nan nan nan nan nan nan nan nan nan nan nan nan nan nan nan nan nan nan nan nan nan 6 2 2 nan nan nan nan nan nan nan nan nan nan nan nan nan nan nan nan nan nan nan nan nan nan nan nan nan nan nan nan nan nan nan nan nan nan nan nan nan
nan nan nan nan nan nan nan nan nan nan nan nan nan nan nan nan nan nan nan nan nan nan nan nan nan nan nan nan nan nan nan nan nan nan nan nan nan nan nan nan nan nan nan nan nan nan 0 nan nan nan 0 nan nan nan nan nan nan nan nan nan nan nan nan nan nan nan nan nan nan nan nan nan nan nan nan nan nan nan nan nan nan nan nan nan nan nan
nan nan nan nan nan nan nan nan nan nan nan nan nan nan nan nan nan nan nan nan nan nan nan nan nan nan nan nan nan nan nan nan nan nan nan nan nan nan nan nan nan nan nan nan nan nan nan nan nan nan nan nan nan nan nan nan nan nan nan nan nan nan nan nan nan nan nan nan nan nan nan nan nan nan nan nan nan nan nan nan nan nan nan nan nan nan
nan nan nan nan nan nan nan nan nan nan nan nan nan nan nan nan nan nan nan nan nan nan nan nan nan nan nan nan nan nan nan nan nan nan nan nan nan nan nan nan nan nan nan nan nan nan nan nan nan nan nan nan nan nan nan nan nan nan nan nan nan nan nan nan nan nan nan nan nan nan nan nan nan nan nan nan nan nan nan nan nan nan nan nan nan nan
nan nan nan nan nan nan nan nan nan nan nan nan nan nan nan nan nan nan nan nan nan nan nan nan nan nan nan nan nan nan nan nan nan nan nan nan nan nan nan nan nan nan nan nan nan nan nan nan nan nan nan 0 0 0 nan 0 0 nan nan nan nan nan nan nan nan nan nan nan nan nan nan nan nan nan nan nan nan nan nan nan nan nan nan nan nan nan
nan nan nan nan nan nan nan nan nan nan nan nan nan nan nan nan nan nan nan nan nan nan nan nan nan nan nan nan nan nan nan nan nan nan nan nan nan nan nan nan nan nan nan nan nan nan nan nan nan nan nan 3 2 2 1 3 3 3 2 0 0 0 nan nan nan nan nan nan nan nan nan nan nan nan nan nan nan nan nan nan nan nan nan nan nan nan
nan nan nan nan nan nan nan nan nan nan nan nan nan nan nan nan nan nan nan nan nan nan nan nan nan nan nan nan nan nan nan nan nan nan nan nan nan nan nan nan nan nan nan nan nan nan nan nan nan nan nan 1 7 7 6 6 6 8 7 4 4 2 0 0 0 nan nan nan nan nan nan nan nan nan nan nan nan nan nan nan nan nan nan nan nan nan
nan nan nan nan nan nan nan nan nan nan nan nan nan nan nan nan nan nan nan nan nan nan nan nan nan nan nan nan nan nan nan nan nan nan nan nan nan nan nan nan nan nan nan nan nan nan nan nan nan nan nan nan 3 3 10 10 10 12 12 9 9 5 2 1 1 nan nan nan nan nan nan nan nan nan nan nan nan nan nan nan nan nan nan nan nan nan
nan nan nan nan nan nan nan nan nan nan nan nan nan nan nan nan nan nan nan nan nan nan nan nan nan nan nan nan nan nan nan nan nan nan nan nan nan nan nan nan nan nan nan nan nan nan nan nan nan nan nan nan nan nan 6 11 11 14 13 12 12 9 4 2 2 0 0 nan nan nan nan nan nan nan nan nan nan nan nan nan nan nan nan nan nan nan
nan nan nan nan nan nan nan nan nan nan nan nan nan nan nan nan nan nan nan nan nan nan nan nan nan nan nan nan nan nan nan nan nan nan nan nan nan nan nan nan nan nan nan nan nan nan nan nan nan nan nan nan nan nan 0 6 6 13 14 13 13 12 9 5 5 3 2 1 0 0 nan nan nan nan nan nan nan nan nan nan nan nan nan nan nan nan
nan nan nan nan nan nan nan nan nan nan nan nan nan nan nan nan nan nan nan nan nan nan nan nan nan nan nan nan nan nan nan nan nan nan nan nan nan nan nan nan nan nan nan nan nan nan nan nan nan nan nan nan nan nan nan 2 2 9 13 14 14 14 13 9 9 7 4 3 1 1 0 nan nan nan nan nan nan nan nan nan nan nan nan nan nan nan
nan nan nan nan nan nan nan nan nan nan nan nan nan nan nan nan nan nan nan nan nan nan nan nan nan nan nan nan nan nan nan nan nan nan nan nan nan nan nan nan nan nan nan nan nan nan nan nan nan nan nan nan nan nan nan nan nan 4 11 15 15 15 14 12 12 10 7 4 2 2 1 0 nan nan nan nan nan nan nan nan nan nan nan nan nan nan
nan nan nan nan nan nan nan nan nan nan nan nan nan nan nan nan nan nan nan nan nan nan nan nan nan nan nan nan nan nan nan nan nan nan nan nan nan nan nan nan nan nan nan nan nan nan nan nan nan nan nan nan nan nan nan nan nan 0 5 12 12 13 15 13 13 12 10 7 4 4 2 1 nan nan nan nan nan nan nan nan nan nan nan nan nan nan
nan nan nan nan nan nan nan 0 1 1 nan nan nan nan nan nan nan nan nan nan nan nan nan nan nan nan nan nan nan nan nan nan nan nan nan nan nan nan nan nan nan nan nan nan nan nan nan nan nan nan nan nan nan nan nan nan nan nan 1 8 8 13 14 16 16 13 11 8 4 4 3 2 0 0 nan nan nan nan nan nan nan nan nan 0 0 nan
nan nan 0 1 1 1 1 1 3 3 5 nan nan nan nan nan nan nan nan nan nan nan nan nan nan nan nan nan nan nan nan nan nan nan nan nan nan nan nan nan nan nan nan nan nan nan nan nan nan nan nan nan nan nan nan nan nan nan 0 5 5 12 12 15 15 14 12 10 7 7 4 2 1 1 0 nan nan nan nan nan nan nan 0 1 1 nan
nan 0 0 0 0 1 1 1 2 2 4 2 4 4 nan nan nan nan nan nan nan nan nan nan nan nan nan nan nan nan nan nan nan nan nan nan nan nan nan nan nan nan nan nan nan nan nan nan nan nan nan nan nan nan nan nan nan nan 1 4 4 10 13 14 14 13 12 10 8 8 5 4 2 2 1 0 0 0 nan nan nan nan 0 nan nan nan
0 0 0 1 1 1 1 1 1 1 2 2 1 1 nan nan nan nan nan nan nan nan nan nan nan nan nan nan nan nan nan nan nan nan nan nan nan nan nan nan nan nan nan nan nan nan nan nan nan nan nan nan nan nan nan nan nan nan nan 2 2 7 10 11 11 13 12 10 10 10 7 4 3 3 2 1 1 1 1 0 0 0 nan nan nan nan
nan nan nan nan nan nan nan nan nan nan 0 0 nan nan nan nan nan nan nan nan nan nan nan nan nan nan nan nan nan nan nan nan nan nan nan nan nan nan nan nan nan nan nan nan nan nan nan nan nan nan nan nan nan nan nan nan nan nan nan nan nan nan 1 6 6 8 11 12 10 10 8 5 4 4 3 3 3 3 1 1 1 nan nan nan nan nan
nan nan nan nan nan nan nan nan nan nan nan nan nan nan nan nan nan nan nan nan nan nan nan nan nan nan nan nan nan nan nan nan nan nan nan nan nan nan nan nan nan nan nan nan nan nan nan nan nan nan nan nan nan nan nan nan nan nan nan nan nan nan nan nan nan nan 4 8 9 9 8 6 5 5 5 4 4 4 3 2 2 nan nan nan nan nan
nan nan nan nan nan nan nan nan nan nan nan nan nan nan nan nan nan nan nan nan nan nan nan nan nan nan nan nan nan nan nan nan nan nan nan nan nan nan nan nan nan nan nan nan nan nan nan nan nan nan nan nan nan nan nan nan nan nan nan nan nan nan nan nan nan nan nan nan nan nan 1 4 7 7 8 10 11 11 8 6 6 3 nan nan nan nan
nan nan nan nan nan nan nan nan nan nan nan nan nan nan nan nan nan nan nan nan nan nan nan nan nan nan nan nan nan nan nan nan nan nan nan nan nan nan nan nan nan nan nan nan nan nan nan nan nan nan nan nan nan nan nan nan nan nan nan nan nan nan nan nan nan nan nan nan nan nan nan 2 4 4 9 12 11 11 10 9 9 5 0 nan nan nan
nan nan nan nan nan nan nan nan nan nan nan nan nan nan nan nan nan nan nan nan nan nan nan nan nan nan nan nan nan nan nan nan nan nan nan nan nan nan nan nan nan nan nan nan nan nan nan nan nan nan nan nan nan nan nan nan nan nan nan nan nan nan nan nan nan nan nan nan nan nan nan nan nan nan nan 6 8 8 9 9 9 5 8 nan nan nan
nan nan nan nan nan nan nan nan nan nan nan nan nan nan nan nan nan nan nan nan nan nan nan nan nan nan nan nan nan nan nan nan nan nan nan nan nan nan nan nan nan nan nan nan nan nan nan nan nan nan nan nan nan nan nan nan nan nan nan nan nan nan nan nan nan nan nan nan nan nan nan nan nan nan nan nan 2 2 8 7 7 5 6 7 7 nan
nan nan nan nan nan nan nan nan nan nan nan nan nan nan nan nan nan nan nan nan nan nan nan nan nan nan nan nan nan nan nan nan nan nan nan nan nan nan nan nan nan nan nan nan nan nan nan nan nan nan nan nan nan nan nan nan nan nan nan nan nan nan nan nan nan nan nan nan nan nan nan nan nan nan nan nan nan nan 2 5 5 4 4 9 9 4
nan nan nan nan nan nan nan nan nan nan nan nan nan nan nan nan nan nan nan nan nan nan nan nan nan nan nan nan nan nan nan nan nan nan nan nan nan nan nan nan nan nan nan nan nan nan nan nan nan nan nan nan nan nan nan nan nan nan nan nan nan nan nan nan nan nan nan nan nan nan nan nan nan nan nan nan nan nan nan 3 3 3 4 12 12 11
nan nan nan nan nan nan nan nan nan nan nan nan nan nan nan nan nan nan nan nan nan nan nan nan nan nan nan nan nan nan nan nan nan nan nan nan nan nan nan nan nan nan nan nan nan nan nan nan nan nan nan nan nan nan nan nan nan nan nan nan nan nan nan nan nan nan nan nan nan nan nan nan nan nan nan nan nan nan nan nan nan nan 3 8 8 18
nan nan nan nan nan nan nan nan nan nan nan nan nan nan nan nan nan nan nan nan nan nan nan nan nan nan nan nan nan nan nan nan nan nan nan nan nan nan nan nan nan nan nan nan nan nan nan nan nan nan nan nan nan nan nan nan nan nan nan nan nan nan nan nan nan nan nan nan nan nan nan nan nan nan nan nan nan nan nan nan nan nan nan nan nan 9
nan nan nan nan nan nan nan nan nan nan nan nan nan nan nan nan nan nan nan nan nan nan nan nan nan nan nan nan nan nan nan nan nan nan nan nan nan nan nan nan nan nan nan nan nan nan nan nan nan nan nan nan nan nan nan nan nan nan nan nan nan nan nan nan nan nan nan nan nan nan nan nan nan nan nan nan nan nan nan nan nan nan nan nan nan nan
nan nan nan nan nan nan nan nan nan nan nan nan nan nan nan nan nan nan nan nan nan nan nan nan nan nan nan nan nan nan nan nan nan nan nan nan nan nan nan nan nan nan nan nan nan nan nan nan nan nan nan nan nan nan nan nan nan nan nan nan nan nan nan nan nan nan nan nan nan nan nan nan nan nan nan nan nan nan nan nan nan nan nan nan nan nan
nan nan nan nan nan nan nan nan nan nan nan nan nan nan nan nan nan nan nan nan nan nan nan nan nan nan nan nan nan nan nan nan nan nan nan nan nan nan nan nan nan nan nan nan nan nan nan nan nan nan nan nan nan nan nan nan nan nan nan nan nan nan nan nan nan nan nan nan nan nan nan nan nan nan nan nan nan nan nan nan nan nan nan nan nan nan
nan nan nan nan nan nan nan nan nan nan nan nan nan nan nan nan nan nan nan nan nan nan nan nan nan nan nan nan nan nan nan nan nan nan nan nan nan nan nan nan nan nan nan nan nan nan nan nan nan nan nan nan nan nan nan nan nan nan nan nan nan nan nan nan nan nan nan nan nan nan nan nan nan nan nan nan nan nan nan nan nan nan nan nan nan nan
nan nan nan nan nan nan nan nan nan nan nan nan nan nan nan nan nan nan nan nan nan nan nan nan nan nan nan nan nan nan nan nan nan nan nan nan nan nan nan nan nan nan nan nan nan nan nan nan nan nan nan nan nan nan nan nan nan nan nan nan nan nan nan nan nan nan nan nan nan nan nan nan nan nan nan nan nan nan nan nan nan nan nan nan nan nan
nan nan nan nan nan nan nan nan nan nan nan nan nan nan nan nan nan nan nan nan nan nan nan nan nan nan nan nan nan nan nan nan nan nan nan nan nan nan nan nan nan nan nan nan nan nan nan nan nan nan nan nan nan nan nan nan nan nan nan nan nan nan nan nan nan nan nan nan nan nan nan nan nan nan nan nan nan nan nan nan nan nan nan nan nan nan
nan nan nan nan nan nan nan nan nan nan nan nan nan nan nan nan nan nan nan nan nan nan nan nan nan nan nan nan nan nan nan nan nan nan nan nan nan nan nan nan nan nan nan nan nan nan nan nan nan nan nan nan nan nan nan nan nan nan nan nan nan nan nan nan nan nan nan nan nan nan nan nan nan nan nan nan nan nan nan nan nan nan nan nan nan nan
nan nan nan nan nan nan nan nan nan nan nan nan nan nan nan nan nan nan nan nan nan nan nan nan nan nan nan nan nan nan nan nan nan nan nan nan nan nan nan nan nan nan nan nan nan nan nan nan nan nan nan nan nan nan nan nan nan nan nan nan nan nan nan nan nan nan nan nan nan nan nan nan nan nan nan nan nan nan nan nan nan nan nan nan nan nan
nan nan nan nan nan nan nan nan nan nan nan nan nan nan nan nan nan nan nan nan nan nan nan nan nan nan nan nan nan nan nan nan nan nan nan nan nan nan nan nan nan nan nan nan nan nan nan nan nan nan nan nan nan nan nan nan nan nan nan nan nan nan nan nan nan nan nan nan nan nan nan nan nan nan nan nan nan nan nan nan nan nan nan nan nan nan
nan nan nan nan nan nan nan nan nan nan nan nan nan nan nan nan nan nan nan nan nan nan nan nan nan nan nan nan nan nan nan nan nan nan nan nan nan nan nan nan nan nan nan nan nan nan nan nan nan nan nan nan nan nan nan nan nan nan nan nan nan nan nan nan nan nan nan nan nan nan nan nan nan nan nan nan nan nan nan nan nan nan nan nan nan nan
nan nan nan nan nan nan nan nan nan nan nan nan nan nan nan nan nan nan nan nan nan nan nan nan nan nan nan nan nan nan nan nan nan nan nan nan nan nan nan nan nan nan nan nan nan nan nan nan nan nan nan nan nan nan nan nan nan nan nan nan nan nan nan nan nan nan nan nan nan nan nan nan nan nan nan nan nan nan nan nan nan nan nan nan nan nan
nan nan nan nan nan nan nan nan nan nan nan nan nan nan nan nan nan nan nan nan nan nan nan nan nan nan nan nan nan nan nan nan nan nan nan nan nan nan nan nan nan nan nan nan nan nan nan nan nan nan nan 0 nan nan nan nan nan nan nan nan nan nan nan nan nan nan nan nan nan nan nan nan nan nan nan nan nan nan nan nan nan nan nan nan nan nan
CIN
nan nan nan nan nan nan nan nan nan nan nan nan nan nan nan nan nan nan nan nan nan nan nan nan nan nan nan -0 -0 -0 -0 -4 -4 -4 -4 -3 -4 -4 -8 -0 -0 -0 nan nan nan nan nan -1 -1 -1 nan -3 -0 -0 -0 -0 -0 -0 -0 -0 -0 -3 -1 -0 -0 -0 -0 -0 -0 -0 -0 -0 -0 -0 -0 -0 -0 -0 -0 -0 -0 nan nan nan nan -0
nan nan nan nan nan nan nan nan nan nan nan nan nan nan nan nan nan nan nan nan nan nan nan nan nan nan nan nan nan nan -0 -0 -4 -4 -3 -2 -0 -0 -0 -0 -0 -0 nan nan nan nan nan nan nan nan nan nan nan nan -5 -0 -0 -0 -0 -0 -0 -2 -2 -0 -0 -0 -0 -0 -0 -0 -0 -0 -0 -0 -0 -0 -0 -0 -0 -0 -0 nan nan -0 -0 -0
nan nan nan nan nan nan nan nan nan nan nan nan nan nan nan nan nan nan nan nan nan nan nan nan nan nan nan nan -0 -0 -0 -0 -0 -0 -5 -3 -3 -3 -0 -0 -0 -0 -0 -0 -0 nan nan nan nan nan nan nan nan nan nan nan nan -0 -0 -0 -0 -1 -2 -0 -0 -0 -0 -0 -0 -0 -0 -0 -0 -0 -0 -0 -0 -0 -0 -0 -0 nan nan nan nan -0
nan nan nan nan nan nan nan nan nan nan nan nan nan nan nan nan -0 -0 nan nan nan nan nan nan nan nan nan nan -0 -0 -0 -0 -0 -0 -7 -4 -6 -6 nan nan nan nan nan nan nan nan nan -0 -0 nan nan nan nan nan nan -19 -19 nan nan -7 -7 -1 -2 -0 -0 -0 -0 -0 -0 -0 -0 -0 -0 -0 -0 -0 -0 -0 -0 nan nan nan nan nan nan -0
nan nan nan nan nan nan nan nan -0 -0 nan nan nan nan nan nan nan nan nan nan nan nan nan nan nan nan nan nan -0 -0 -0 -0 -0 -0 -0 -0 -5 -5 -0 -15 -15 nan nan nan nan nan nan nan nan nan nan nan nan nan nan nan nan nan nan nan nan nan nan nan nan -0 -0 -0 -0 -0 -0 -0 -0 -0 -0 -0 -0 -0 -0 nan nan nan nan nan nan -0
nan nan nan nan nan nan nan nan -0 -0 nan nan nan nan nan nan nan nan nan nan nan nan nan nan nan nan nan nan -0 -0 -0 -0 -0 -0 -0 -0 -0 -0 -0 -0 -0 -27 nan nan nan nan nan nan nan nan nan nan nan nan -0 nan nan nan nan nan nan nan nan nan nan nan -0 -0 -0 -0 -0 -0 -0 -0 -0 -0 -0 -0 nan nan nan nan nan nan nan -0
nan nan nan nan nan nan nan nan -0 -0 nan nan nan nan nan nan nan nan nan -0 -0 -0 nan nan nan nan nan nan -0 -0 -0 -0 -0 -0 nan -0 -10 -10 -0 -0 -0 -26 nan -0 -0 nan nan nan nan nan nan nan nan nan nan nan nan nan nan nan nan nan nan nan nan nan nan -3 -4 -4 -2 nan nan nan nan nan nan nan nan nan nan nan nan nan nan nan
nan nan nan nan nan nan nan nan nan nan nan nan nan nan nan nan nan nan nan nan nan nan nan nan nan nan nan nan nan nan nan -0 -0 -0 nan -30 -1 -1 -0 -0 -0 -0 nan nan nan nan -0 -0 -0 nan nan nan nan nan nan nan nan nan nan nan nan nan nan nan nan nan nan nan nan nan nan nan nan nan nan nan nan nan nan nan nan nan nan nan nan nan
nan nan nan nan nan nan nan nan nan nan nan nan nan nan nan nan nan nan nan nan nan nan nan nan nan nan nan nan nan nan -0 -0 -0 -0 nan nan nan nan -0 -0 -0 -0 -0 nan nan -0 -0 -0 -0 -0 nan nan nan nan nan nan nan nan nan nan nan nan nan nan nan nan nan nan nan nan nan nan nan nan nan nan nan nan nan nan nan nan nan nan nan nan
nan nan nan nan nan nan nan nan nan nan nan nan nan nan nan nan nan nan nan nan nan nan nan nan nan nan nan nan nan nan nan nan -0 -0 -0 nan -26 -26 nan nan nan -1 -0 -0 -0 -0 -0 -0 -0 -0 nan nan nan nan nan nan nan nan nan -0 -0 nan nan nan nan nan nan nan nan nan nan nan nan nan nan nan nan nan nan nan nan nan nan nan nan nan
nan nan nan nan nan nan nan nan nan nan nan nan nan nan nan nan nan nan nan nan nan nan nan nan nan nan nan nan nan nan nan nan nan nan -0 nan nan nan nan nan nan nan -1 -0 -0 -0 -0 -0 -0 -0 nan nan nan nan nan nan nan nan nan nan nan -0 -0 nan nan nan nan nan nan nan nan nan nan nan nan nan nan nan nan nan nan nan nan nan nan nan
nan nan nan nan nan nan nan nan nan nan nan nan nan nan nan nan nan nan nan nan nan nan nan nan nan nan nan nan nan nan nan nan nan nan nan -0 -0 -0 nan nan nan nan nan -0 -0 -1 -0 -0 -0 nan nan nan nan nan nan nan nan nan nan nan nan nan nan nan nan nan nan nan nan nan nan nan nan nan nan nan nan nan nan nan nan nan nan nan nan nan
nan nan nan nan nan nan nan nan nan nan nan nan nan nan nan nan nan nan nan nan nan nan nan nan nan nan nan nan nan nan nan nan nan nan nan nan nan nan nan nan nan nan nan nan nan nan -0 -0 -0 nan nan nan nan nan nan nan nan nan nan nan nan nan nan nan nan nan nan nan nan nan nan nan nan nan nan nan nan nan nan nan nan nan nan nan nan nan
nan nan nan nan nan nan nan nan nan nan nan nan nan nan nan nan nan nan nan nan nan nan nan nan nan nan nan nan nan nan nan nan nan nan nan nan nan nan nan nan nan nan nan nan nan nan -1 nan nan nan -0 nan nan nan nan nan nan nan nan nan nan nan nan nan nan nan nan nan nan nan nan nan nan nan nan nan nan nan nan nan nan nan nan nan nan nan
nan nan nan nan nan nan nan nan nan nan nan nan nan nan nan nan nan nan nan nan nan nan nan nan nan nan nan nan nan nan nan nan nan nan nan nan nan nan nan nan nan nan nan nan nan nan nan nan nan nan nan nan nan nan nan nan nan nan nan nan nan nan nan nan nan nan nan nan nan nan nan nan nan nan nan nan nan nan nan nan nan nan nan nan nan nan
nan nan nan nan nan nan nan nan nan nan nan nan nan nan nan nan nan nan nan nan nan nan nan nan nan nan nan nan nan nan nan nan nan nan nan nan nan nan nan nan nan nan nan nan nan nan nan nan nan nan nan nan nan nan nan nan nan nan nan nan nan nan nan nan nan nan nan nan nan nan nan nan nan nan nan nan nan nan nan nan nan nan nan nan nan nan
nan nan nan nan nan nan nan nan nan nan nan nan nan nan nan nan nan nan nan nan nan nan nan nan nan nan nan nan nan nan nan nan nan nan nan nan nan nan nan nan nan nan nan nan nan nan nan nan nan nan nan -0 -0 -0 nan -0 -0 nan nan nan nan nan nan nan nan nan nan nan nan nan nan nan nan nan nan nan nan nan nan nan nan nan nan nan nan nan
nan nan nan nan nan nan nan nan nan nan nan nan nan nan nan nan nan nan nan nan nan nan nan nan nan nan nan nan nan nan nan nan nan nan nan nan nan nan nan nan nan nan nan nan nan nan nan nan nan nan nan -0 -0 -0 -0 -0 -0 -0 -0 -0 -0 -0 nan nan nan nan nan nan nan nan nan nan nan nan nan nan nan nan nan nan nan nan nan nan nan nan
nan nan nan nan nan nan nan nan nan nan nan nan nan nan nan nan nan nan nan nan nan nan nan nan nan nan nan nan nan nan nan nan nan nan nan nan nan nan nan nan nan nan nan nan nan nan nan nan nan nan nan -1 -0 -0 -0 -0 -0 -0 -0 -0 -0 -0 -0 -0 -0 nan nan nan nan nan nan nan nan nan nan nan nan nan nan nan nan nan nan nan nan nan
nan nan nan nan nan nan nan nan nan nan nan nan nan nan nan nan nan nan nan nan nan nan nan nan nan nan nan nan nan nan nan nan nan nan nan nan nan nan nan nan nan nan nan nan nan nan nan nan nan nan nan nan -2 -2 -0 -0 -0 -0 -0 -0 -0 -0 -0 -0 -0 nan nan nan nan nan nan nan nan nan nan nan nan nan nan nan nan nan nan nan nan nan
nan nan nan nan nan nan nan nan nan nan nan nan nan nan nan nan nan nan nan nan nan nan nan nan nan nan nan nan nan nan nan nan nan nan nan nan nan nan nan nan nan nan nan nan nan nan nan nan nan nan nan nan nan nan -0 -0 -0 -0 -0 -0 -0 -0 -0 -0 -0 -0 -0 nan nan nan nan nan nan nan nan nan nan nan nan nan nan nan nan nan nan nan
nan nan nan nan nan nan nan nan nan nan nan nan nan nan nan nan nan nan nan nan nan nan nan nan nan nan nan nan nan nan nan nan nan nan nan nan nan nan nan nan nan nan nan nan nan nan nan nan nan nan nan nan nan nan -1 -1 -1 -0 -0 -0 -0 -0 -0 -0 -0 -0 -0 -0 -0 -0 nan nan nan nan nan nan nan nan nan nan nan nan nan nan nan nan
nan nan nan nan nan nan nan nan nan nan nan nan nan nan nan nan nan nan nan nan nan nan nan nan nan nan nan nan nan nan nan nan nan nan nan nan nan nan nan nan nan nan nan nan nan nan nan nan nan nan nan nan nan nan nan -0 -0 -0 -0 -1 -1 -0 -0 -0 -0 -0 -0 -0 -0 -0 -0 nan nan nan nan nan nan nan nan nan nan nan nan nan nan nan
nan nan nan nan nan nan nan nan nan nan nan nan nan nan nan nan nan nan nan nan nan nan nan nan nan nan nan nan nan nan nan nan nan nan nan nan nan nan nan nan nan nan nan nan nan nan nan nan nan nan nan nan nan nan nan nan nan -0 -0 -0 -0 -1 -0 -0 -0 -0 -0 -0 -0 -0 -0 -0 nan nan nan nan nan nan nan nan nan nan nan nan nan nan
nan nan nan nan nan nan nan nan nan nan nan nan nan nan nan nan nan nan nan nan nan nan nan nan nan nan nan nan nan nan nan nan nan nan nan nan nan nan nan nan nan nan nan nan nan nan nan nan nan nan nan nan nan nan nan nan nan -0 -0 -0 -0 -1 -1 -0 -0 -0 -0 -0 -0 -0 -0 -0 nan nan nan nan nan nan nan nan nan nan nan nan nan nan
nan nan nan nan nan nan nan -2 -0 -0 nan nan nan nan nan nan nan nan nan nan nan nan nan nan nan nan nan nan nan nan nan nan nan nan nan nan nan nan nan nan nan nan nan nan nan nan nan nan nan nan nan nan nan nan nan nan nan nan -0 -0 -0 -0 -1 -1 -1 -0 -0 -0 -0 -0 -0 -0 -0 -0 nan nan nan nan nan nan nan nan nan -0 -0 nan
nan nan -0 -0 -0 -0 -0 -0 -0 -0 -0 nan nan nan nan nan nan nan nan nan nan nan nan nan nan nan nan nan nan nan nan nan nan nan nan nan nan nan nan nan nan nan nan nan nan nan nan nan nan nan nan nan nan nan nan nan nan nan -0 -0 -0 -0 -0 -1 -1 -0 -0 -0 -0 -0 -0 -0 -0 -0 -0 nan nan nan nan nan nan nan -0 -0 -0 nan
nan -0 -0 -0 -0 -0 -0 -0 -0 -0 -0 -0 -0 -0 nan nan nan nan nan nan nan nan nan nan nan nan nan nan nan nan nan nan nan nan nan nan nan nan nan nan nan nan nan nan nan nan nan nan nan nan nan nan nan nan nan nan nan nan -0 -0 -0 -0 -0 -0 -0 -1 -0 -0 -0 -0 -0 -0 -0 -0 -0 -0 -0 -0 nan nan nan nan -0 nan nan nan
-0 -0 -0 -0 -0 -0 -0 -0 -0 -0 -0 -0 -0 -0 nan nan nan nan nan nan nan nan nan nan nan nan nan nan nan nan nan nan nan nan nan nan nan nan nan nan nan nan nan nan nan nan nan nan nan nan nan nan nan nan nan nan nan nan nan -0 -0 -0 -0 -0 -0 -0 -0 -0 -0 -0 -0 -0 -0 -0 -0 -0 -0 -0 -0 -0 -0 -0 nan nan nan nan
nan nan nan nan nan nan nan nan nan nan -0 -0 nan nan nan nan nan nan nan nan nan nan nan nan nan nan nan nan nan nan nan nan nan nan nan nan nan nan nan nan nan nan nan nan nan nan nan nan nan nan nan nan nan nan nan nan nan nan nan nan nan nan -2 -0 -0 -0 -0 -0 -0 -0 -0 -0 -0 -0 -0 -0 -0 -0 -0 -0 -0 nan nan nan nan nan
nan nan nan nan nan nan nan nan nan nan nan nan nan nan nan nan nan nan nan nan nan nan nan nan nan nan nan nan nan nan nan nan nan nan nan nan nan nan nan nan nan nan nan nan nan nan nan nan nan nan nan nan nan nan nan nan nan nan nan nan nan nan nan nan nan nan -0 -0 -0 -0 -0 -0 -0 -0 -0 -0 -0 -0 -0 -0 -0 nan nan nan nan nan
nan nan nan nan nan nan nan nan nan nan nan nan nan nan nan nan nan nan nan nan nan nan nan nan nan nan nan nan nan nan nan nan nan nan nan nan nan nan nan nan nan nan nan nan nan nan nan nan nan nan nan nan nan nan nan nan nan nan nan nan nan nan nan nan nan nan nan nan nan nan -0 -0 -0 -0 -0 -0 -0 -0 -0 -0 -0 -0 nan nan nan nan
nan nan nan nan nan nan nan nan nan nan nan nan nan nan nan nan nan nan nan nan nan nan nan nan nan nan nan nan nan nan nan nan nan nan nan nan nan nan nan nan nan nan nan nan nan nan nan nan nan nan nan nan nan nan nan nan nan nan nan nan nan nan nan nan nan nan nan nan nan nan nan -0 -0 -0 -0 -0 -0 -0 -0 -0 -0 -0 -19 nan nan nan
nan nan nan nan nan nan nan nan nan nan nan nan nan nan nan nan nan nan nan nan nan nan nan nan nan nan nan nan nan nan nan nan nan nan nan nan nan nan nan nan nan nan nan nan nan nan nan nan nan nan nan nan nan nan nan nan nan nan nan nan nan nan nan nan nan nan nan nan nan nan nan nan nan nan nan -5 -1 -1 -0 -0 -0 -0 -0 nan nan nan
nan nan nan nan nan nan nan nan nan nan nan nan nan nan nan nan nan nan nan nan nan nan nan nan nan nan nan nan nan nan nan nan nan nan nan nan nan nan nan nan nan nan nan nan nan nan nan nan nan nan nan nan nan nan nan nan nan nan nan nan nan nan nan nan nan nan nan nan nan nan nan nan nan nan nan nan -4 -4 -0 -0 -0 -0 -0 -6 -6 nan
nan nan nan nan nan nan nan nan nan nan nan nan nan nan nan nan nan nan nan nan nan nan nan nan nan nan nan nan nan nan nan nan nan nan nan nan nan nan nan nan nan nan nan nan nan nan nan nan nan nan nan nan nan nan nan nan nan nan nan nan nan nan nan nan nan nan nan nan nan nan nan nan nan nan nan nan nan nan -0 -0 -0 -0 -0 -5 -5 -8
nan nan nan nan nan nan nan nan nan nan nan nan nan nan nan nan nan nan nan nan nan nan nan nan nan nan nan nan nan nan nan nan nan nan nan nan nan nan nan nan nan nan nan nan nan nan nan nan nan nan nan nan nan nan nan nan nan nan nan nan nan nan nan nan nan nan nan nan nan nan nan nan nan nan nan nan nan nan nan -0 -0 -0 -0 -0 -0 -2
nan nan nan nan nan nan nan nan nan nan nan nan nan nan nan nan nan nan nan nan nan nan nan nan nan nan nan nan nan nan nan nan nan nan nan nan nan nan nan nan nan nan nan nan nan nan nan nan nan nan nan nan nan nan nan nan nan nan nan nan nan nan nan nan nan nan nan nan nan nan nan nan nan nan nan nan nan nan nan nan nan nan -0 -5 -5 -3
nan nan nan nan nan nan nan nan nan nan nan nan nan nan nan nan nan nan nan nan nan nan nan nan nan nan nan nan nan nan nan nan nan nan nan nan nan nan nan nan nan nan nan nan nan nan nan nan nan nan nan nan nan nan nan nan nan nan nan nan nan nan nan nan nan nan nan nan nan nan nan nan nan nan nan nan nan nan nan nan nan nan nan nan nan -11
nan nan nan nan nan nan nan nan nan nan nan nan nan nan nan nan nan nan nan nan nan nan nan nan nan nan nan nan nan nan nan nan nan nan nan nan nan nan nan nan nan nan nan nan nan nan nan nan nan nan nan nan nan nan nan nan nan nan nan nan nan nan nan nan nan nan nan nan nan nan nan nan nan nan nan nan nan nan nan nan nan nan nan nan nan nan
nan nan nan nan nan nan nan nan nan nan nan nan nan nan nan nan nan nan nan nan nan nan nan nan nan nan nan nan nan nan nan nan nan nan nan nan nan nan nan nan nan nan nan nan nan nan nan nan nan nan nan nan nan nan nan nan nan nan nan nan nan nan nan nan nan nan nan nan nan nan nan nan nan nan nan nan nan nan nan nan nan nan nan nan nan nan
nan nan nan nan nan nan nan nan nan nan nan nan nan nan nan nan nan nan nan nan nan nan nan nan nan nan nan nan nan nan nan nan nan nan nan nan nan nan nan nan nan nan nan nan nan nan nan nan nan nan nan nan nan nan nan nan nan nan nan nan nan nan nan nan nan nan nan nan nan nan nan nan nan nan nan nan nan nan nan nan nan nan nan nan nan nan
nan nan nan nan nan nan nan nan nan nan nan nan nan nan nan nan nan nan nan nan nan nan nan nan nan nan nan nan nan nan nan nan nan nan nan nan nan nan nan nan nan nan nan nan nan nan nan nan nan nan nan nan nan nan nan nan nan nan nan nan nan nan nan nan nan nan nan nan nan nan nan nan nan nan nan nan nan nan nan nan nan nan nan nan nan nan
nan nan nan nan nan nan nan nan nan nan nan nan nan nan nan nan nan nan nan nan nan nan nan nan nan nan nan nan nan nan nan nan nan nan nan nan nan nan nan nan nan nan nan nan nan nan nan nan nan nan nan nan nan nan nan nan nan nan nan nan nan nan nan nan nan nan nan nan nan nan nan nan nan nan nan nan nan nan nan nan nan nan nan nan nan nan
nan nan nan nan nan nan nan nan nan nan nan nan nan nan nan nan nan nan nan nan nan nan nan nan nan nan nan nan nan nan nan nan nan nan nan nan nan nan nan nan nan nan nan nan nan nan nan nan nan nan nan nan nan nan nan nan nan nan nan nan nan nan nan nan nan nan nan nan nan nan nan nan nan nan nan nan nan nan nan nan nan nan nan nan nan nan
nan nan nan nan nan nan nan nan nan nan nan nan nan nan nan nan nan nan nan nan nan nan nan nan nan nan nan nan nan nan nan nan nan nan nan nan nan nan nan nan nan nan nan nan nan nan nan nan nan nan nan nan nan nan nan nan nan nan nan nan nan nan nan nan nan nan nan nan nan nan nan nan nan nan nan nan nan nan nan nan nan nan nan nan nan nan
nan nan nan nan nan nan nan nan nan nan nan nan nan nan nan nan nan nan nan nan nan nan nan nan nan nan nan nan nan nan nan nan nan nan nan nan nan nan nan nan nan nan nan nan nan nan nan nan nan nan nan nan nan nan nan nan nan nan nan nan nan nan nan nan nan nan nan nan nan nan nan nan nan nan nan nan nan nan nan nan nan nan nan nan nan nan
nan nan nan nan nan nan nan nan nan nan nan nan nan nan nan nan nan nan nan nan nan nan nan nan nan nan nan nan nan nan nan nan nan nan nan nan nan nan nan nan nan nan nan nan nan nan nan nan nan nan nan nan nan nan nan nan nan nan nan nan nan nan nan nan nan nan nan nan nan nan nan nan nan nan nan nan nan nan nan nan nan nan nan nan nan nan
nan nan nan nan nan nan nan nan nan nan nan nan nan nan nan nan nan nan nan nan nan nan nan nan nan nan nan nan nan nan nan nan nan nan nan nan nan nan nan nan nan nan nan nan nan nan nan nan nan nan nan nan nan nan nan nan nan nan nan nan nan nan nan nan nan nan nan nan nan nan nan nan nan nan nan nan nan nan nan nan nan nan nan nan nan nan
nan nan nan nan nan nan nan nan nan nan nan nan nan nan nan nan nan nan nan nan nan nan nan nan nan nan nan nan nan nan nan nan nan nan nan nan nan nan nan nan nan nan nan nan nan nan nan nan nan nan nan nan nan nan nan nan nan nan nan nan nan nan nan nan nan nan nan nan nan nan nan nan nan nan nan nan nan nan nan nan nan nan nan nan nan nan
nan nan nan nan nan nan nan nan nan nan nan nan nan nan nan nan nan nan nan nan nan nan nan nan nan nan nan nan nan nan nan nan nan nan nan nan nan nan nan nan nan nan nan nan nan nan nan nan nan nan nan -0 nan nan nan nan nan nan nan nan nan nan nan nan nan nan nan nan nan nan nan nan nan nan nan nan nan nan nan nan nan nan nan nan nan nan
Wind_Speed
1 2 2 2 2 1 1 2 2 2 2 2 2 2 2 3 3 4 4 4 4 4 3 3 4 4 5 7 9 10 9 5 2 5 7 8 8 8 8 8 8 7 7 6 6 6 6 6 6 6 6 6 6 6 6 6 6 6 6 6 5 4 5 8 10 13 14 15 16 17 17 17 17 17 16 15 15 14 14 13 13 12 11 9 8 8
2 2 2 2 2 1 0 2 1 1 1 1 1 1 1 2 2 3 3 3 3 3 3 3 4 4 4 5 7 9 10 8 4 3 7 9 9 9 9 9 8 8 7 7 7 6 6 7 7 7 6 6 6 6 6 7 7 7 7 7 6 6 6 9 11 13 14 15 15 16 16 15 15 15 14 14 14 13 13 12 11 10 10 9 8 7
1 1 2 2 1 1 1 1 1 0 1 1 1 0 1 1 1 2 2 2 2 2 2 2 3 4 4 5 6 8 9 9 7 4 5 8 10 10 10 10 9 9 8 8 7 7 7 6 6 6 6 6 6 6 6 7 7 7 8 8 7 8 9 10 12 13 13 14 14 15 14 14 14 13 13 13 13 12 12 11 10 9 9 8 7 7
0 0 1 1 1 0 1 1 1 1 1 1 1 1 1 1 1 0 1 1 2 2 2 2 3 3 3 4 5 7 9 9 9 7 5 6 9 11 11 11 10 10 9 8 8 7 7 6 6 6 6 6 6 6 6 6 7 7 7 8 8 9 10 11 12 12 13 13 13 13 13 13 13 13 13 12 12 11 11 10 9 9 8 7 7 6
1 1 1 1 1 1 1 2 2 1 1 1 1 1 1 1 0 0 1 1 2 2 3 3 3 3 3 3 5 7 8 9 9 8 7 5 7 10 12 11 11 11 10 9 9 8 7 7 6 6 6 6 6 6 6 6 7 7 8 8 8 9 10 11 11 11 11 12 12 12 13 13 13 13 12 12 11 11 10 9 9 8 7 7 6 6
0 1 1 1 1 1 1 1 1 1 1 1 0 0 1 1 0 1 1 2 2 2 2 2 2 2 2 3 5 7 8 9 9 9 8 5 6 9 11 11 11 11 11 10 9 8 8 7 7 7 7 7 7 7 6 6 7 7 8 8 9 9 9 10 10 10 10 10 11 11 12 12 12 12 12 11 11 10 9 9 8 7 7 6 6 5
1 0 0 0 1 1 1 1 1 1 0 1 1 1 1 1 1 1 1 1 2 2 2 2 2 2 2 3 5 7 7 8 8 8 7 6 6 8 10 11 11 11 11 10 10 9 8 7 7 7 7 7 7 7 7 7 7 7 8 9 9 9 10 10 10 10 10 10 11 11 11 11 11 11 11 10 10 9 9 8 7 7 6 6 5 5
1 1 1 1 1 1 1 1 1 0 0 0 1 1 1 1 1 1 1 1 2 2 2 2 2 2 2 3 4 5 6 6 6 6 6 5 6 7 10 11 12 12 11 11 10 9 9 8 8 8 7 8 8 8 8 7 7 8 8 9 9 10 10 10 11 11 11 11 12 12 12 12 11 11 11 10 9 9 8 7 7 6 6 5 5 5
0 1 1 1 0 1 1 1 1 0 0 1 1 0 1 2 2 1 1 1 2 2 2 2 2 2 2 3 3 4 5 5 5 4 4 3 4 6 9 10 11 12 12 11 10 10 9 9 8 8 8 8 8 8 8 8 8 8 8 9 9 10 11 11 11 11 12 12 12 12 12 12 12 12 11 11 10 9 8 7 7 6 6 5 5 4
1 1 1 1 0 0 1 2 1 1 0 1 1 1 0 1 2 2 2 1 1 2 1 2 2 3 3 3 3 4 5 6 6 6 4 0 3 6 7 8 9 10 11 11 11 10 9 9 9 9 9 9 9 9 9 9 8 8 8 8 9 10 10 11 11 11 12 12 12 12 12 11 11 11 11 11 10 10 9 8 7 6 6 5 4 4
0 1 1 1 1 1 1 1 1 1 1 1 1 0 0 0 1 1 2 2 1 1 1 1 1 2 2 3 3 4 4 5 6 7 6 4 3 4 5 6 7 8 10 10 10 10 9 9 9 9 9 9 9 9 9 9 9 9 8 9 9 9 9 10 11 11 11 11 11 11 11 11 10 10 10 9 9 9 8 8 7 7 6 5 5 4
0 0 0 1 1 1 1 1 1 1 1 1 1 1 1 0 0 1 2 1 1 1 2 1 1 1 1 2 3 3 3 3 4 5 5 5 5 4 3 4 5 7 8 8 8 9 9 9 9 9 9 9 9 9 8 8 9 9 9 9 9 9 9 9 10 10 10 10 10 10 10 10 9 9 8 8 8 7 7 6 6 6 6 5 5 5
1 0 0 0 1 1 1 1 1 1 0 0 1 1 1 1 0 0 0 0 0 1 1 2 2 1 1 1 1 2 2 3 3 3 3 4 4 4 3 2 2 3 4 4 5 5 7 8 9 8 8 8 8 8 8 8 9 9 9 9 9 9 9 9 9 9 9 9 9 9 9 9 8 8 7 7 7 6 6 5 5 4 4 4 4 4
0 0 0 1 1 1 1 1 1 1 1 1 1 1 1 0 0 1 1 1 0 0 1 1 2 2 1 1 1 2 2 2 2 2 3 3 3 3 3 3 2 2 2 3 3 3 5 6 6 6 7 7 8 8 8 8 9 9 9 9 9 8 8 8 8 8 8 8 8 8 8 8 7 7 6 6 5 5 5 4 3 3 3 3 4 4
1 1 1 1 2 2 1 1 1 1 1 1 1 0 0 0 1 1 1 0 0 1 1 1 2 2 1 1 1 2 2 1 2 2 2 2 3 3 3 2 1 2 2 2 2 3 4 4 3 4 5 6 6 6 7 7 8 9 9 8 8 8 8 7 7 7 7 7 7 7 7 6 6 6 5 5 5 4 4 3 2 2 2 2 3 4
1 1 2 2 2 2 1 1 1 1 0 0 0 1 1 0 0 0 0 0 0 0 1 1 2 2 1 0 1 2 2 2 1 2 2 2 2 3 3 2 1 2 2 2 2 2 2 2 3 3 4 5 6 7 7 7 8 9 9 8 8 8 7 7 7 7 7 6 6 6 6 6 6 5 5 5 4 4 3 2 1 1 1 2 3 4
1 1 2 2 2 2 1 1 1 1 1 0 0 1 1 1 0 0 0 1 0 1 1 1 1 1 1 1 1 2 2 2 1 1 1 2 2 2 2 2 1 1 2 2 2 1 2 2 2 2 3 6 7 8 7 8 8 9 9 9 8 8 8 8 7 7 7 6 6 6 6 6 5 5 5 4 4 3 2 1 0 0 1 2 3 4
2 2 2 2 2 1 1 0 0 0 1 0 0 0 0 1 1 1 1 1 1 1 1 1 1 1 1 1 1 2 2 2 1 1 1 1 2 2 2 2 1 1 1 1 1 1 1 1 1 1 3 7 8 8 8 8 8 9 9 9 9 9 9 8 8 7 7 7 6 6 6 5 5 5 4 4 4 3 2 2 1 1 2 3 4 4
2 2 2 2 2 1 1 0 0 0 1 1 1 1 0 0 0 1 1 1 1 1 1 1 1 1 2 1 1 1 2 1 1 1 1 0 1 2 2 2 2 2 1 1 1 1 2 2 1 0 2 5 7 9 9 9 9 9 9 9 9 9 9 9 8 8 7 7 6 6 6 5 5 5 5 4 4 3 3 3 2 2 3 3 4 4
2 2 2 2 1 1 1 0 0 0 1 1 1 1 1 0 0 0 1 1 1 1 1 2 2 2 1 1 1 1 2 2 1 0 1 0 1 1 2 1 1 1 1 1 1 2 2 2 2 2 1 2 5 7 9 9 9 9 9 9 9 9 9 9 9 8 8 7 7 6 6 6 5 5 5 5 4 4 4 4 3 3 3 4 4 5
2 2 1 1 1 1 1 0 0 1 0 1 1 1 1 0 0 0 1 1 1 1 1 1 2 1 1 1 1 1 2 1 1 0 0 0 1 1 1 1 1 1 0 1 1 1 2 2 2 2 3 2 3 5 7 8 9 10 10 9 9 9 9 9 9 9 8 8 7 7 6 6 6 5 5 5 5 5 5 4 4 4 4 4 5 5
2 2 1 1 1 1 1 1 1 1 1 1 2 1 1 1 1 1 1 1 1 1 1 1 1 1 1 1 1 1 1 1 0 0 1 0 1 1 1 1 1 1 1 2 1 1 1 1 1 2 3 3 4 4 5 7 8 9 10 10 10 10 10 10 10 9 9 8 7 7 7 6 6 6 6 5 5 5 5 5 5 5 5 5 5 5
2 2 1 1 1 1 1 1 1 1 0 1 1 1 1 2 2 1 1 1 1 1 1 1 0 0 1 1 1 1 1 1 0 0 1 0 1 1 1 1 1 0 2 1 1 1 1 1 1 2 3 4 5 5 6 6 7 8 9 10 10 10 11 10 10 10 9 8 8 7 7 7 6 6 6 6 6 6 6 6 6 6 5 5 5 5
2 2 2 1 1 1 1 1 1 1 0 1 1 1 1 1 1 1 1 1 2 2 2 1 1 1 1 1 1 1 1 1 0 0 1 1 1 1 1 1 0 1 2 1 0 1 1 1 2 2 2 4 5 6 7 7 7 8 9 9 10 10 11 11 10 10 9 9 8 8 7 7 7 7 7 6 6 6 6 6 6 6 6 6 5 6
3 2 2 2 2 2 2 1 1 1 1 1 1 1 1 1 2 2 2 2 2 2 2 1 1 1 1 1 1 1 1 1 0 0 1 1 1 1 1 1 0 1 2 1 1 1 1 2 2 2 2 4 6 7 8 8 8 9 9 9 9 10 10 11 10 10 10 9 9 8 8 8 8 7 7 7 7 7 7 7 7 7 6 6 6 6
4 3 3 3 3 2 2 2 2 3 3 2 2 1 1 2 2 2 2 1 1 1 2 1 0 1 1 1 2 2 1 1 1 1 1 0 1 1 1 1 0 1 2 1 1 1 1 2 2 2 2 3 5 7 8 9 9 9 10 10 10 10 10 10 10 10 10 10 9 9 9 9 8 8 8 8 7 7 7 7 7 7 7 6 6 5
5 5 5 5 4 4 3 3 3 3 3 3 3 2 2 2 2 1 1 0 1 1 2 1 1 1 1 1 2 2 2 1 1 0 1 1 0 1 1 1 1 1 2 2 1 1 1 2 2 2 2 2 3 4 7 9 9 10 10 10 10 10 10 10 10 10 10 10 10 10 9 9 9 9 8 8 8 8 7 8 8 7 7 6 4 3
6 6 6 5 5 5 4 4 3 3 3 2 2 2 2 2 2 1 1 1 1 1 1 1 1 1 1 1 2 2 2 1 1 0 1 1 0 1 1 1 1 1 1 1 1 1 1 2 2 2 2 2 2 3 5 7 9 9 10 10 11 11 11 10 10 10 10 10 10 10 10 10 9 9 9 9 8 8 8 8 8 7 6 4 1 0
6 6 6 6 5 5 5 4 4 3 3 3 4 4 3 2 2 2 2 2 1 2 1 1 1 1 1 1 1 2 2 1 1 0 1 1 0 1 1 1 1 1 1 1 2 2 2 2 1 1 2 2 2 2 3 5 6 6 7 8 9 10 10 10 10 10 10 11 11 11 11 10 10 10 10 9 9 9 8 8 8 7 4 2 1 1
4 5 5 5 5 5 5 4 4 4 4 4 4 4 3 2 2 2 2 2 2 2 2 1 1 1 1 0 1 2 2 2 1 0 2 1 0 1 1 1 1 1 1 1 1 2 2 2 2 1 2 2 2 2 2 2 2 3 3 4 5 6 7 8 9 9 10 10 11 11 11 11 11 10 10 10 10 9 9 9 8 5 2 2 2 1
2 2 2 3 3 3 3 3 3 3 4 4 4 4 3 2 1 1 1 2 2 2 2 2 1 1 1 1 1 0 2 2 1 1 2 1 0 0 0 0 1 1 0 1 0 1 2 2 2 2 2 2 2 2 2 1 1 1 1 2 2 3 5 6 7 8 9 10 10 11 11 11 11 11 11 11 10 10 10 9 8 5 2 3 2 1
1 1 1 1 2 2 3 3 3 3 3 3 3 3 3 2 2 1 1 2 2 2 2 2 1 1 1 1 1 1 2 2 1 0 2 2 1 0 1 0 0 1 1 1 1 1 1 2 2 3 2 2 2 2 2 2 1 1 1 1 1 2 4 4 5 6 6 8 9 10 11 11 11 12 11 11 11 11 10 10 9 6 3 3 3 2
1 1 1 1 2 2 2 2 2 2 2 2 2 2 2 2 2 2 1 1 1 2 2 2 2 1 1 1 1 1 2 2 2 1 3 2 1 0 0 0 0 1 1 1 1 0 1 1 2 2 2 2 2 2 2 2 1 1 1 0 1 2 3 3 3 3 4 5 6 7 9 10 10 11 11 11 11 11 11 11 10 8 5 3 3 3
2 1 1 1 2 2 2 2 2 2 1 1 1 1 1 1 1 2 1 1 1 1 2 3 3 2 2 1 0 1 2 3 2 1 3 3 2 1 1 1 0 0 1 1 1 1 0 1 1 2 2 2 2 2 2 2 2 1 1 0 1 2 2 2 2 2 2 2 3 3 5 5 6 8 9 9 10 10 11 11 11 10 9 5 4 4
2 1 1 1 1 1 1 1 1 1 1 1 1 1 1 1 1 1 1 1 1 1 1 2 3 3 3 2 1 1 3 3 3 1 2 3 3 2 1 1 1 1 1 0 0 0 1 1 1 1 2 2 2 2 2 2 2 1 1 1 1 1 1 1 1 1 1 1 2 2 2 2 3 4 5 6 8 9 10 11 11 12 11 8 6 5
2 1 0 0 0 0 1 1 1 1 1 1 2 1 1 0 0 0 0 1 1 1 1 1 2 2 3 4 3 2 3 3 2 1 1 3 3 2 1 1 2 2 2 1 1 1 0 1 1 1 1 1 2 3 2 2 2 2 1 1 1 1 1 1 1 0 1 1 1 2 2 2 2 2 3 5 7 8 10 11 12 12 12 11 9 8
1 1 1 1 1 1 2 2 2 2 2 2 2 2 1 1 0 0 0 0 1 1 1 1 0 0 1 2 3 3 3 2 1 0 1 2 3 3 2 1 2 2 3 2 1 1 1 0 1 1 1 1 2 2 3 3 3 2 2 2 1 1 1 1 1 1 1 1 1 2 2 2 2 2 3 5 7 8 9 11 11 12 13 12 11 11
1 1 1 1 2 2 2 2 2 3 3 3 2 2 1 1 0 0 1 1 1 1 1 1 1 1 1 0 1 2 2 1 1 0 1 1 2 2 2 1 1 2 2 2 2 2 1 0 1 1 2 2 2 3 2 2 2 2 2 2 2 2 2 1 1 1 1 1 2 2 2 1 1 2 2 3 3 4 5 6 7 9 11 11 11 12
2 2 2 2 2 3 3 3 3 3 3 3 2 2 1 0 0 1 1 1 1 1 1 1 1 1 1 1 1 1 1 1 1 1 1 1 2 2 2 2 1 1 1 2 2 2 2 2 1 2 2 2 3 2 2 1 1 2 2 3 3 2 2 1 1 1 2 1 1 1 1 1 1 1 1 1 2 2 3 3 4 5 6 5 6 9
2 2 2 3 3 3 3 3 3 2 2 2 2 2 1 1 1 1 2 1 1 1 1 1 1 1 1 1 1 2 1 1 1 2 2 2 2 2 3 2 2 2 2 1 2 2 2 2 2 2 2 2 2 2 2 2 2 1 2 2 2 3 2 1 1 1 1 1 1 1 1 1 0 0 1 1 2 2 2 2 2 3 3 2 2 3
3 2 2 2 2 3 3 2 1 1 2 2 2 2 1 1 1 1 2 2 2 2 2 2 2 2 3 2 2 1 1 1 1 2 2 2 2 2 2 3 3 3 3 2 1 2 2 2 2 2 2 2 2 2 2 2 2 2 1 1 2 3 3 3 2 1 1 1 1 1 1 1 0 1 1 2 2 2 2 2 2 2 2 2 2 2
4 3 3 2 2 1 1 1 1 2 3 3 2 1 1 1 1 1 1 1 2 2 2 2 2 2 3 3 3 2 1 1 1 1 2 2 2 2 2 3 3 3 3 2 1 1 2 2 2 2 2 2 2 2 3 3 3 2 2 2 2 3 4 4 2 1 1 1 1 1 2 1 1 1 1 1 2 2 2 2 2 3 3 2 2 2
4 3 2 1 1 1 2 2 3 3 3 2 1 1 1 1 1 1 1 0 1 1 1 1 1 1 1 2 3 3 2 2 2 1 1 2 2 2 2 3 3 3 3 2 1 1 1 2 2 2 3 2 2 2 3 3 3 2 2 2 1 1 2 3 2 2 1 1 1 1 1 1 1 1 1 1 1 1 2 2 3 4 5 3 3 2
3 2 1 1 2 2 3 2 2 2 2 2 1 1 1 1 1 1 1 1 1 0 0 1 2 2 1 1 2 3 3 3 3 2 1 2 3 3 3 3 3 3 3 2 2 1 1 1 2 2 2 2 2 2 3 3 3 2 2 2 2 2 2 2 2 2 2 2 1 1 1 1 1 0 0 1 1 1 1 1 2 2 3 3 3 3
2 2 2 2 2 2 2 2 2 2 2 2 2 1 1 1 1 1 1 1 1 0 0 1 1 1 1 1 2 2 3 3 3 2 2 1 1 2 3 3 3 2 3 3 3 3 2 2 2 2 1 1 1 2 3 3 3 3 3 2 2 3 3 2 2 1 1 2 2 2 1 0 0 0 1 1 1 1 1 1 1 2 2 2 2 3
2 2 2 2 2 3 3 3 2 2 2 1 1 1 1 1 1 1 2 1 1 1 1 1 1 1 1 1 1 2 2 3 3 3 3 3 2 1 1 2 2 2 2 3 3 3 3 3 2 1 0 0 1 3 4 4 3 3 3 3 2 2 3 2 2 2 2 2 2 2 1 1 1 0 1 2 2 2 1 1 2 2 2 2 2 2
3 3 3 3 3 3 3 3 3 3 2 2 2 2 2 2 2 2 1 1 1 1 1 1 1 1 1 1 1 1 1 2 3 3 3 3 2 2 1 1 0 1 2 2 2 3 3 3 3 3 1 1 2 3 4 3 3 3 3 2 2 2 2 2 2 2 2 2 2 1 0 1 1 1 2 2 2 2 2 2 2 2 3 3 3 3
4 4 4 4 4 3 3 3 3 3 3 2 2 2 2 3 3 3 1 1 2 2 1 1 1 1 1 1 1 1 1 2 2 2 3 2 2 2 2 2 1 1 0 1 2 2 3 4 4 4 4 3 3 4 4 3 2 2 2 2 2 2 3 3 2 2 1 2 2 2 1 1 2 2 2 2 2 2 2 2 2 2 3 3 3 3
3 4 4 4 4 4 3 3 3 3 3 3 2 2 2 3 4 4 2 2 2 2 2 2 1 1 1 2 2 2 2 2 2 2 2 2 1 1 2 2 2 2 2 2 2 1 2 3 4 5 6 5 5 5 4 3 3 2 1 1 2 2 3 3 3 2 1 2 2 2 2 2 2 3 2 2 2 3 2 3 3 3 3 3 3 3
3 3 4 4 4 4 4 4 4 4 4 3 3 2 2 2 2 3 3 2 2 2 2 2 2 2 2 2 2 2 2 2 1 2 2 1 1 0 1 2 2 2 3 2 3 3 3 2 3 5 7 8 7 6 4 4 3 2 1 1 2 2 2 3 3 2 2 2 2 2 2 2 2 2 2 2 3 3 3 3 3 3 3 2 3 3
4 3 4 4 4 4 4 4 4 4 4 4 3 3 2 2 2 2 2 2 3 3 3 3 2 2 2 2 2 2 2 2 2 2 2 1 1 1 1 1 2 2 2 2 2 3 3 3 3 3 4 7 9 9 5 4 2 1 1 1 1 1 2 2 2 2 2 2 2 2 2 2 2 2 2 2 2 3 3 3 3 3 2 2 3 3
Wind_Direction
345 323 331 2 29 46 2 350 19 56 46 15 3 3 10 18 18 17 20 24 23 17 9 360 356 354 354 352 348 345 337 321 243 181 165 158 152 146 142 139 136 132 128 123 118 112 107 102 96 90 83 74 66 56 47 40 35 32 30 30 34 52 81 94 97 96 92 89 87 85 84 84 84 85 86 87 89 90 92 94 96 99 101 103 105 106
339 332 331 0 38 73 350 316 343 77 98 51 3 355 12 22 16 7 5 14 20 18 7 355 351 349 345 341 342 342 339 330 304 215 179 167 159 154 151 147 143 139 134 129 124 119 113 108 102 96 89 82 74 66 58 52 46 42 40 41 45 58 80 94 98 99 97 95 94 93 92 91 90 90 91 92 92 93 94 96 98 100 102 103 103 103
330 332 321 342 32 101 174 262 267 196 147 152 171 186 75 54 33 5 348 349 356 4 4 355 348 342 336 330 332 334 334 332 323 294 209 179 169 162 159 155 151 146 141 136 130 125 118 112 106 100 94 88 81 75 70 63 58 54 52 53 59 69 82 91 96 98 99 99 98 98 98 97 96 96 95 95 95 96 96 98 99 101 102 103 102 101
202 256 282 300 310 208 199 228 243 244 206 185 180 168 126 100 86 354 318 329 338 343 345 349 347 341 330 325 324 325 327 328 326 316 273 204 181 171 165 162 156 151 146 141 136 131 124 118 111 104 98 92 88 83 79 75 71 68 66 67 72 79 86 92 96 99 101 102 102 102 102 101 100 99 99 98 98 98 98 99 100 100 101 102 102 101
197 204 242 266 278 267 252 255 259 261 254 222 187 152 116 111 121 286 339 354 351 345 339 342 343 338 327 323 321 321 322 322 322 317 305 243 196 179 170 165 159 153 149 145 141 136 130 123 116 109 102 97 93 90 88 86 84 81 80 80 83 87 92 96 99 101 103 105 106 106 106 106 105 104 104 104 104 104 104 104 104 103 102 101 99 98
239 216 232 233 245 258 272 283 282 278 281 287 266 117 104 91 60 25 17 11 0 349 337 333 327 322 320 323 322 321 320 319 317 313 307 270 215 187 174 167 160 154 150 147 143 139 133 127 120 113 106 102 99 97 95 95 94 93 92 92 92 94 96 99 101 103 104 105 106 107 107 108 108 109 110 110 110 111 110 109 108 105 101 97 92 88
316 303 291 290 274 273 290 295 296 300 0 344 339 355 64 51 38 32 31 24 10 351 331 318 311 309 318 328 328 325 322 317 312 305 298 271 229 195 176 167 159 153 149 147 144 140 135 130 124 118 112 107 104 102 100 100 100 100 101 101 100 99 99 99 99 99 99 97 97 98 100 101 102 104 106 106 108 109 110 110 108 104 99 93 86 79
338 329 340 339 338 335 327 311 303 297 107 67 350 338 342 351 359 9 31 44 34 12 341 326 320 321 329 337 335 331 324 317 309 299 286 263 225 192 174 164 157 152 149 146 144 141 137 133 127 121 115 110 107 104 102 100 100 102 104 105 105 104 102 100 98 96 94 92 91 90 89 89 89 90 91 90 91 93 96 99 100 99 96 90 83 75
166 306 316 311 346 346 320 306 298 287 131 121 111 0 328 325 325 332 5 49 49 34 4 347 336 329 329 337 339 336 330 323 315 304 280 243 204 180 167 159 154 150 148 146 143 141 138 134 128 123 117 112 108 105 102 100 99 100 103 105 107 107 106 104 102 99 96 94 92 90 87 85 83 81 80 78 76 76 76 77 79 81 82 78 74 68
163 210 274 269 236 208 258 268 280 304 48 120 133 146 233 299 307 313 319 5 36 36 23 11 346 329 323 333 341 341 336 331 330 330 330 34 152 155 151 149 148 147 145 143 142 140 137 133 128 123 118 114 110 107 104 102 101 101 103 105 107 109 109 109 107 106 103 101 99 96 94 90 87 84 81 77 73 69 65 62 59 57 56 55 53 49
186 204 245 278 283 264 234 244 270 316 353 65 86 99 166 240 275 293 299 308 343 14 12 10 349 328 321 330 337 342 344 342 342 347 358 27 78 115 122 129 135 138 140 139 138 137 134 131 127 122 118 115 112 109 106 104 103 104 105 107 108 109 111 111 111 110 110 108 106 104 101 98 95 91 86 81 76 70 64 57 50 43 38 33 28 23
162 179 236 277 287 286 265 270 302 332 357 24 0 335 319 287 233 245 272 289 325 355 345 331 319 300 300 319 328 336 346 350 351 354 2 14 24 37 66 102 120 128 132 132 132 131 130 127 123 120 117 115 113 111 108 107 107 107 107 108 108 109 110 111 112 112 112 112 111 109 107 104 100 97 92 87 81 75 67 58 48 37 27 18 9 1
126 110 61 281 275 271 266 280 306 327 345 218 240 259 272 280 274 166 206 24 12 356 325 318 310 296 276 305 321 329 338 346 350 355 4 12 12 8 5 30 75 103 113 115 119 122 125 122 120 118 117 117 116 115 113 113 112 111 110 110 109 109 110 110 111 112 113 112 111 110 108 106 103 100 97 92 88 82 75 64 51 36 21 8 355 343
119 100 2 272 261 256 251 247 251 255 249 211 206 211 223 257 42 84 95 79 25 325 316 315 306 302 311 334 335 329 324 335 349 1 11 16 12 3 346 357 28 70 86 90 95 105 112 114 116 118 121 121 120 119 120 119 119 118 117 116 115 114 114 114 115 116 116 115 114 113 110 109 107 105 102 99 95 90 83 74 60 40 17 357 342 329
153 167 223 242 244 244 242 235 233 232 225 191 169 163 72 7 33 69 95 148 290 321 351 329 313 306 314 340 348 340 328 342 6 16 9 11 9 4 349 350 18 65 82 83 81 83 91 101 112 122 127 130 132 133 135 132 131 131 130 129 128 128 128 128 128 129 129 127 126 123 121 119 118 116 113 110 105 99 92 83 67 41 6 340 325 315
162 176 211 227 236 239 239 230 222 215 197 150 131 113 91 41 29 58 144 197 222 24 25 0 339 324 313 0 20 7 348 0 28 40 18 4 0 359 357 359 31 73 82 80 72 65 67 87 109 126 136 146 149 151 153 150 148 147 146 146 146 146 147 147 147 147 146 144 141 138 136 133 132 130 128 124 119 114 107 96 77 27 335 318 310 305
165 185 209 225 237 241 238 224 202 182 162 152 136 126 125 145 157 162 158 145 115 83 71 59 4 323 308 331 19 23 5 2 27 54 45 5 350 349 357 11 47 83 88 81 72 64 64 85 108 130 151 161 163 164 165 165 164 163 162 162 163 164 165 165 164 163 160 157 154 151 148 147 146 145 143 141 138 135 131 129 125 306 303 301 299 298
176 191 205 219 226 230 228 230 212 180 147 155 166 160 136 153 152 145 139 134 135 141 147 145 169 228 278 290 330 6 6 352 8 53 65 0 338 341 355 16 37 61 81 75 54 33 37 59 108 155 168 175 176 176 177 179 179 178 177 176 176 176 177 176 175 173 170 167 164 162 160 160 160 161 161 162 162 164 167 181 214 260 282 290 292 293
188 195 199 208 212 212 204 209 220 198 175 183 180 170 127 72 111 122 143 157 166 171 171 178 193 211 231 249 286 342 356 335 343 62 103 304 318 332 351 16 34 43 52 43 13 0 0 359 358 344 184 187 186 186 187 190 191 191 190 189 187 186 185 184 183 181 178 175 173 172 172 173 175 177 180 182 186 190 197 208 226 247 266 278 285 288
189 195 194 193 190 181 171 166 178 266 206 181 166 156 169 197 127 145 183 182 181 180 175 188 204 217 226 246 288 326 344 335 345 78 135 216 286 321 349 23 50 59 15 319 321 332 343 347 345 336 309 228 205 198 196 197 199 200 200 198 196 194 193 191 190 189 187 185 183 182 182 184 187 191 195 199 204 210 215 222 232 244 257 269 278 284
181 188 188 173 162 158 163 173 329 340 15 124 126 127 157 165 219 236 224 200 191 193 191 204 212 219 223 252 285 315 340 346 6 81 129 256 290 314 351 30 70 103 246 281 297 317 333 338 338 333 327 293 249 224 212 207 206 206 207 205 203 201 200 199 198 196 195 193 192 191 191 193 197 201 206 211 217 222 227 232 237 244 252 263 272 279
164 168 164 143 139 147 157 189 289 321 25 112 126 146 177 182 205 225 227 205 200 202 209 211 216 223 228 250 271 293 327 340 28 109 110 282 285 300 353 20 62 125 222 258 280 306 327 325 316 306 304 293 279 261 242 227 219 215 214 212 209 207 206 205 204 203 202 201 200 200 201 203 206 210 214 220 225 230 236 239 243 246 251 258 267 274
137 142 147 142 141 147 163 212 260 289 348 126 151 172 181 181 190 200 202 185 169 150 131 134 179 269 269 264 273 286 298 293 274 133 111 233 262 282 345 9 49 171 230 248 270 300 316 299 290 289 292 281 276 270 262 251 241 233 227 221 216 213 211 210 209 209 208 207 208 209 211 213 216 219 222 225 230 235 240 244 247 249 251 256 263 270
125 138 154 165 171 177 185 211 234 262 9 91 124 148 167 164 158 151 142 131 119 112 110 101 62 344 304 283 284 293 292 290 284 125 123 225 252 273 330 7 33 221 241 252 290 336 313 288 279 278 285 273 268 264 261 259 255 249 244 237 229 222 216 214 213 212 213 214 215 217 220 222 224 226 228 230 233 237 242 245 248 249 250 253 259 266
135 148 165 177 180 180 178 187 180 157 127 114 107 108 108 101 93 87 78 82 90 103 111 98 59 340 316 316 313 307 299 318 28 100 134 212 258 284 321 7 331 231 254 285 340 0 318 287 282 280 276 265 260 257 256 255 255 254 254 250 243 234 225 219 216 216 217 219 221 224 226 229 230 231 232 234 236 239 243 246 248 250 250 251 254 261
137 143 148 145 140 132 121 125 128 131 135 139 141 135 113 94 86 80 72 73 93 110 113 102 72 295 310 323 313 304 302 340 19 62 118 143 275 296 313 358 357 284 281 297 318 332 291 275 277 278 268 259 257 255 253 252 253 253 254 254 250 245 236 227 222 220 221 223 226 229 231 233 234 235 235 236 238 240 243 246 248 249 248 248 251 258
118 116 114 109 103 97 90 88 93 105 121 137 145 144 124 106 96 93 105 170 154 132 124 146 217 264 300 308 296 290 301 329 356 29 82 77 330 293 304 340 344 317 299 296 286 255 236 252 262 268 268 268 268 263 257 256 254 254 253 253 253 250 245 237 230 227 227 229 231 233 235 236 237 237 237 237 238 240 242 246 248 248 248 246 248 260
102 100 98 96 93 89 83 79 78 81 87 97 102 105 108 116 126 150 210 212 172 134 135 169 198 222 253 276 282 287 300 304 302 251 96 67 329 285 294 324 336 331 312 300 289 273 255 257 267 280 291 299 299 285 271 266 262 259 258 256 254 253 250 245 240 236 235 236 237 238 239 239 239 239 239 238 239 240 241 244 247 248 246 237 216 67
83 83 84 82 78 72 66 59 60 66 72 68 67 68 80 114 143 169 200 184 152 135 156 181 190 194 209 275 303 311 311 295 280 143 107 89 319 287 313 340 347 348 340 318 317 317 309 291 292 302 304 312 315 309 295 286 279 275 275 267 262 259 256 253 249 246 243 243 243 243 243 242 242 241 240 239 239 239 240 243 245 245 237 201 140 97
55 58 58 54 52 51 49 42 42 48 62 68 69 68 69 95 133 163 184 160 144 144 169 185 187 176 156 48 359 336 310 298 293 109 106 109 179 292 344 351 343 341 20 358 335 322 311 303 298 295 293 308 313 314 312 311 314 315 309 292 283 277 269 264 260 256 253 252 250 249 248 246 244 243 241 240 239 239 239 240 241 237 206 152 125 104
55 55 46 29 24 25 31 31 31 33 44 55 59 61 63 75 101 138 154 142 140 146 161 173 176 163 143 116 96 310 288 291 296 85 104 114 146 269 71 341 309 309 0 77 37 307 301 304 305 306 308 313 311 306 304 309 319 332 342 329 314 298 285 278 273 269 266 262 259 256 253 250 248 245 243 241 239 238 237 238 237 231 188 157 145 140
103 90 77 23 10 11 19 22 22 23 26 30 33 38 46 58 72 90 113 127 134 138 142 149 154 152 145 146 163 200 253 272 268 164 108 108 102 60 97 132 293 309 336 52 120 174 252 287 303 312 324 322 315 309 304 303 308 317 340 332 305 293 290 290 286 283 280 272 267 263 259 255 251 247 244 241 239 237 236 236 235 229 195 171 165 172
114 95 73 34 20 18 19 17 17 16 16 10 7 10 21 33 46 60 77 105 122 129 132 133 134 132 128 139 176 227 263 271 257 198 121 111 103 81 75 87 354 333 346 8 34 146 204 248 287 306 315 314 311 309 308 309 316 332 357 302 276 283 295 307 308 302 298 287 280 275 270 263 258 253 248 244 240 238 236 236 235 231 215 181 169 175
110 92 66 41 27 18 13 9 8 7 0 352 345 347 358 14 30 40 48 63 96 123 135 137 139 138 132 126 196 285 286 280 274 239 117 114 119 130 120 134 147 80 21 6 3 356 273 263 284 303 309 309 308 305 301 306 321 338 351 276 259 274 298 326 329 317 309 308 302 295 290 283 278 270 259 252 246 242 238 237 237 235 229 203 176 168
108 97 76 54 35 19 3 354 349 342 327 314 311 316 331 358 21 29 33 37 53 98 133 144 147 148 145 144 158 250 271 269 274 279 113 122 127 132 134 183 180 158 123 127 38 327 296 286 288 300 314 315 311 305 295 295 307 318 314 274 255 260 283 310 316 311 312 315 306 300 303 306 302 292 278 265 257 250 245 242 240 238 234 219 197 176
116 123 133 127 156 198 235 263 275 277 272 273 275 281 287 305 350 17 21 21 31 47 79 128 148 152 152 153 164 191 230 245 259 274 115 130 131 131 148 200 188 162 142 154 171 190 238 288 299 309 325 311 304 301 299 307 318 326 319 302 284 271 267 255 243 252 297 293 283 279 279 283 283 281 278 269 263 258 252 247 244 241 238 225 210 193
136 168 204 201 197 200 211 224 231 234 237 246 252 255 250 252 260 287 323 354 17 34 43 41 54 138 156 159 169 185 207 222 240 308 96 130 131 133 154 194 185 166 153 161 169 173 156 317 326 325 316 262 266 282 302 321 334 338 325 314 303 291 279 257 213 182 184 233 249 256 259 257 256 259 262 264 263 260 256 251 247 244 240 230 217 203
165 195 215 210 203 202 207 216 222 224 221 222 221 220 217 216 234 282 322 349 10 26 38 26 4 341 332 198 188 193 201 196 190 151 122 132 131 133 146 170 190 185 172 167 161 153 140 159 292 295 286 265 261 269 292 319 329 323 308 305 298 285 268 251 217 189 191 219 239 250 253 253 257 260 263 263 262 261 259 256 252 247 242 235 223 211
188 206 217 211 203 199 202 211 216 217 212 205 196 182 158 131 50 5 352 358 7 16 19 12 343 318 313 291 259 235 217 199 185 173 156 151 143 140 143 157 184 200 185 161 149 145 145 164 190 217 247 268 278 285 295 301 299 296 304 315 315 306 283 256 219 201 198 206 228 249 267 292 297 279 263 257 245 240 245 254 252 249 244 246 232 220
196 210 220 214 203 196 197 206 209 205 184 162 134 105 83 58 27 7 358 3 10 16 14 3 344 325 309 293 276 258 239 214 190 174 163 169 162 152 148 162 171 171 155 138 133 138 144 162 181 198 206 230 262 284 297 291 278 280 324 333 323 311 305 300 279 238 206 194 204 222 250 294 305 272 252 238 222 216 215 222 234 239 238 240 239 230
199 212 224 220 208 201 203 210 204 163 127 114 103 86 64 51 29 10 357 356 356 359 6 9 0 347 335 325 309 288 266 241 207 184 169 172 166 157 151 161 160 151 141 134 131 139 151 163 180 199 206 211 232 258 270 266 262 259 289 280 277 279 290 293 289 271 229 211 206 205 210 223 242 249 248 242 236 227 215 202 206 220 230 222 213 210
205 212 218 214 207 197 182 116 94 92 95 99 106 121 156 135 113 77 30 351 337 340 2 19 15 356 339 328 321 317 319 312 276 202 169 165 161 155 152 156 153 146 138 133 140 167 181 178 186 198 204 202 220 252 268 266 261 252 231 233 264 291 304 299 299 298 238 234 228 218 209 216 230 244 249 255 264 268 264 225 208 206 211 215 215 214
207 209 203 187 165 137 111 97 92 90 90 97 128 183 205 176 147 136 130 185 276 301 3 49 58 43 350 323 318 317 319 321 320 310 172 165 161 157 153 153 151 146 137 136 158 204 218 203 203 204 202 186 195 231 262 270 272 264 239 221 233 325 317 302 310 326 319 271 249 231 215 214 216 218 231 260 282 293 299 268 239 223 211 206 207 215
195 178 139 122 108 97 89 91 97 106 115 138 178 215 232 200 158 143 136 175 224 257 53 74 77 74 52 318 306 307 311 314 320 324 308 197 179 165 150 152 152 149 142 149 163 184 211 232 234 226 206 182 192 222 247 261 266 265 253 221 197 196 230 264 291 319 329 308 287 259 229 212 196 180 286 294 298 303 306 287 271 250 229 213 204 205
147 127 112 112 110 110 114 134 141 139 140 163 189 213 219 194 171 161 157 173 190 188 138 114 93 72 14 304 299 304 313 316 322 327 327 313 204 160 145 149 152 154 151 159 164 168 171 214 237 239 208 174 195 222 241 252 261 265 261 240 221 216 226 242 258 280 288 289 284 272 254 201 111 40 316 295 288 282 271 250 253 256 255 239 217 210
137 133 136 136 142 152 167 168 161 150 150 178 206 218 208 182 168 164 166 165 169 182 189 156 140 133 252 277 290 307 317 318 318 319 322 332 344 7 108 143 156 162 164 170 171 171 173 187 195 197 155 247 249 242 235 238 248 259 267 260 253 251 257 260 249 234 228 247 260 266 262 88 87 85 264 266 267 266 258 230 221 226 236 236 228 219
158 158 162 163 169 175 179 169 160 157 165 192 216 222 207 174 160 155 160 165 166 172 184 171 159 162 200 237 255 276 300 303 305 307 309 318 335 351 2 355 194 181 173 179 184 187 189 185 179 173 176 246 267 264 251 235 232 241 257 264 268 271 273 268 255 235 218 227 239 242 128 99 117 210 242 252 259 264 262 244 227 219 219 220 222 223
173 170 171 172 175 178 178 172 169 171 178 196 213 219 206 180 169 162 162 172 173 169 166 169 177 195 220 228 227 227 240 264 277 287 295 301 316 335 347 346 343 334 247 216 212 211 209 199 191 187 190 211 240 258 264 249 232 227 240 255 264 267 267 269 264 250 231 234 228 211 164 165 189 211 227 244 256 261 259 254 245 233 221 217 217 220
177 173 173 174 177 180 182 181 182 184 187 193 203 213 211 191 181 176 170 175 175 174 176 192 210 228 239 241 238 237 242 252 262 271 279 287 305 330 349 356 1 3 357 344 329 303 264 234 219 211 206 208 222 244 263 261 251 235 230 241 251 259 266 271 273 267 249 244 234 219 194 198 201 203 203 226 245 255 258 258 254 247 232 221 218 220
183 177 174 176 180 185 187 185 187 190 193 193 197 202 204 192 183 177 171 172 175 181 187 197 211 227 243 247 247 248 254 259 270 274 272 267 275 333 15 19 23 21 10 358 354 351 345 316 271 244 225 216 216 225 249 260 264 261 250 245 242 248 261 270 273 270 256 250 240 226 212 219 212 202 192 218 239 253 261 260 258 252 242 228 223 226
189 184 178 181 186 190 190 187 189 192 194 193 194 194 192 185 181 179 177 178 183 189 196 198 207 221 240 246 248 248 250 254 262 268 267 246 199 143 101 74 62 54 39 16 1 358 1 355 337 304 257 226 216 213 221 234 246 263 276 263 248 238 244 260 267 269 265 255 240 218 205 215 216 210 199 213 234 252 262 262 259 255 248 233 228 232